Location: Saint-Gilles les Bains
(21.0539°S, 55.2287°E)
Time: 07:48:39
(UTC+04:00)

ISS - Visible Passes

Search period start: 22 March 2019 00:00
Search period end: 01 April 2019 00:00
Orbit: 406 x 411 km, 51.6° (Epoch: 22 March)

Date Brightness Start Highest point End Pass type
(mag) Time Alt. Az. Time Alt. Az. Time Alt. Az.
23 Mar -1.5 05:24:31 10° N 05:27:14 24° NE 05:29:59 10° ESE visible
24 Mar -0.6 04:35:49 10° NE 04:36:22 10° ENE 04:36:54 10° ENE visible
25 Mar -3.9 05:20:03 30° NW 05:21:34 81° SW 05:24:53 10° SE visible
26 Mar -1.4 04:32:02 24° ESE 04:32:02 24° ESE 04:33:40 10° ESE visible
27 Mar -2.1 05:16:36 21° SSW 05:16:36 21° SSW 05:18:39 10° S visible
